Flag for Germany Weather past 2 weeks in Erkelenz, North Rhine-Westphalia, Germany

Now
73 °F

Scattered clouds.


Feels Like: 77 °F
Forecast: 54 / 74 °F
Wind: 9 mph from North

Location: Monchengladbach Airport

Current Time: Jul 30, 2014 at 1:51:55 PM

Latest Report: Jul 30, 2014 at 1:20 PM


Visibility: N/A

Pressure: 29.92 "Hg

Humidity: 57%

Dew point: 57 °F

Location of ErkelenzLocation

Historic Weather in Erkelenz — Graph

°F

Erkelenz temperature yesterday

Maximum temperature yesterday: 77 °F (at 1:20 PM)
Minimum temperature yesterday: 64 °F (at 7:50 AM)
Average temperature yesterday: 70 °F

Past Weeks' High & Low Weather Summary

 TemperatureHumidityPressure
High91 °F (Jul 19, 4:50 PM)100% (Jul 15, 12:50 PM)30.18 "Hg (Jul 15, 12:50 PM)
Low61 °F (Jul 26, 7:50 AM)29% (Jul 19, 12:50 PM)29.77 "Hg (Jul 20, 8:20 AM)
Average74 °F69%29.96 "Hg
* Reported Jul 15 12:20 PM — Jul 30 12:50 PM, Erkelenz, Weather by CustomWeather, © 2014

Note: Actual official high and low records may vary slightly from our data, if they occured in-between our weather recording intervals... More about our weather records

Advertising

Erkelenz weather history for previous 24 hours

 ConditionsComfort  
Time TempWeatherWind HumidityBarometerVisibility
12:50 PM
Jul 30
72 °FScattered clouds.12 mph61%29.92 "HgN/A
12:20 PM70 °FScattered clouds.12 mph69%29.92 "HgN/A
11:50 AM72 °FScattered clouds.12 mph65%29.89 "HgN/A
11:20 AM68 °FScattered clouds.8 mph73%29.89 "HgN/A
10:50 AM68 °FScattered clouds.9 mph69%29.89 "HgN/A
10:20 AM68 °FScattered clouds.8 mph73%29.89 "HgN/A
9:50 AM66 °FScattered clouds.8 mph83%29.89 "HgN/A
9:20 AM66 °FScattered clouds.12 mph83%29.89 "HgN/A
8:50 AM64 °FScattered clouds.9 mph88%29.89 "HgN/A
8:20 AM63 °FScattered clouds.9 mph94%29.89 "HgN/A
7:50 AM63 °FPartly sunny.8 mph94%29.86 "HgN/A
8:20 PM
Jul 29
68 °FFog.3 mph100%29.80 "Hg3 mi
7:50 PM68 °FFog.1 mph100%29.80 "Hg3 mi
7:20 PM70 °FClear.1 mph88%29.80 "Hg5 mi
6:50 PM68 °FPartly cloudy.7 mph94%29.77 "Hg5 mi
6:20 PM70 °FThundershowers. Partly cloudy.6 mph88%29.80 "Hg5 mi
5:50 PM68 °FThundershowers. Partly cloudy.5 mph94%29.80 "Hg5 mi
5:20 PM72 °FThunderstorms. Partly cloudy.13 mph83%29.80 "Hg3 mi
4:50 PM73 °FScattered showers. Passing clouds.3 mph83%29.77 "Hg4 mi
4:20 PM73 °FPassing clouds.5 mph83%29.80 "Hg4 mi
3:50 PM72 °FPassing clouds.5 mph94%29.80 "Hg5 mi
3:20 PM72 °FPassing clouds.7 mph83%29.80 "HgN/A
2:51 PM72 °FThunderstorms. Partly cloudy.6 mph94%29.80 "Hg2 mi
2:20 PM77 °FThundershowers. Passing clouds.7 mph74%29.80 "Hg3 mi
1:50 PM77 °FFog.7 mph74%29.83 "Hg3 mi
1:20 PM77 °FPartly sunny.7 mph74%29.83 "HgN/A
Weather by CustomWeather, © 2014

See weather overviewHow to use our weather pages